• In Hungary
  • List of Countries
  • For 7 days
  • Water Temperature
  • Satellite Maps
  • Weather Map
  • News
  • Weather Widgets
  • user-avatar
    Login

    Hourly Weather Akordat

    Today, 17 December, Sunday

    Time Temperature Precipitation Wind Pressure Humidity
    00:00 +26°C° 0 mm 2 mps 709 mmHg 58%
    01:00 +25°C° 0 mm 2 mps 709 mmHg 61%
    02:00 +25°C° 0 mm 2 mps 708 mmHg 63%
    03:00 +24°C° 0 mm 2 mps 708 mmHg 66%
    04:00 +24°C° 0 mm 1 mps 708 mmHg 67%
    05:00 +23°C° 0 mm 1 mps 708 mmHg 68%
    06:00 +23°C° 0 mm 1 mps 708 mmHg 69%
    07:00 +24°C° 0 mm 2 mps 708 mmHg 64%
    08:00 +25°C° 0 mm 2 mps 709 mmHg 59%
    09:00 +26°C° 0 mm 2 mps 709 mmHg 53%
    10:00 +28°C° 0 mm 2 mps 709 mmHg 45%
    11:00 +29°C° 0 mm 2 mps 709 mmHg 37%
    12:00 +31°C° 0 mm 2 mps 709 mmHg 29%
    13:00 +32°C° 0 mm 2 mps 708 mmHg 26%
    14:00 +34°C° 0 mm 2 mps 708 mmHg 23%
    15:00 +35°C° 0 mm 2 mps 707 mmHg 20%
    16:00 +34°C° 0 mm 3 mps 707 mmHg 22%
    17:00 +34°C° 0 mm 3 mps 707 mmHg 24%
    18:00 +33°C° 0 mm 3 mps 707 mmHg 25%
    19:00 +31°C° 0 mm 3 mps 708 mmHg 31%
    20:00 +30°C° 0 mm 3 mps 708 mmHg 36%
    21:00 +29°C° 0 mm 3 mps 708 mmHg 41%
    22:00 +28°C° 0 mm 2 mps 709 mmHg 45%
    23:00 +27°C° 0 mm 2 mps 709 mmHg 49%

    Tomorrow, 18 December, Monday

    Time Temperature Precipitation Wind Pressure Humidity
    00:00 +26°C° 0 mm 2 mps 709 mmHg 53%
    01:00 +26°C° 0 mm 2 mps 709 mmHg 56%
    02:00 +25°C° 0 mm 2 mps 708 mmHg 58%
    03:00 +25°C° 0 mm 2 mps 708 mmHg 60%
    04:00 +24°C° 0 mm 2 mps 708 mmHg 62%
    05:00 +24°C° 0 mm 2 mps 708 mmHg 63%
    06:00 +23°C° 0 mm 2 mps 709 mmHg 65%
    07:00 +24°C° 0 mm 2 mps 709 mmHg 60%
    08:00 +25°C° 0 mm 2 mps 709 mmHg 56%
    09:00 +26°C° 0 mm 2 mps 710 mmHg 51%
    10:00 +28°C° 0 mm 2 mps 710 mmHg 44%
    11:00 +30°C° 0 mm 3 mps 709 mmHg 36%
    12:00 +33°C° 0 mm 3 mps 709 mmHg 29%
    13:00 +34°C° 0 mm 3 mps 708 mmHg 26%
    14:00 +35°C° 0 mm 3 mps 708 mmHg 24%
    15:00 +36°C° 0 mm 3 mps 707 mmHg 22%
    16:00 +35°C° 0 mm 3 mps 707 mmHg 24%
    17:00 +34°C° 0 mm 4 mps 707 mmHg 27%
    18:00 +33°C° 0 mm 4 mps 707 mmHg 29%
    19:00 +32°C° 0 mm 4 mps 707 mmHg 35%
    20:00 +30°C° 0 mm 4 mps 708 mmHg 40%
    21:00 +29°C° 0 mm 3 mps 708 mmHg 45%
    22:00 +28°C° 0 mm 3 mps 708 mmHg 48%
    23:00 +27°C° 0 mm 3 mps 708 mmHg 50%

    Day after tomorrow, 19 December, Tuesday

    Time Temperature Precipitation Wind Pressure Humidity
    00:00 +27°C° 0 mm 3 mps 708 mmHg 53%
    01:00 +26°C° 0 mm 3 mps 708 mmHg 54%
    02:00 +26°C° 0 mm 2 mps 708 mmHg 55%
    03:00 +25°C° 0 mm 2 mps 707 mmHg 56%
    04:00 +25°C° 0 mm 2 mps 707 mmHg 58%
    05:00 +24°C° 0 mm 2 mps 707 mmHg 59%
    06:00 +24°C° 0 mm 2 mps 707 mmHg 60%
    07:00 +25°C° 0 mm 3 mps 708 mmHg 56%
    08:00 +26°C° 0 mm 3 mps 709 mmHg 52%
    09:00 +27°C° 0 mm 3 mps 709 mmHg 48%
    10:00 +29°C° 0 mm 3 mps 709 mmHg 41%
    11:00 +32°C° 0 mm 4 mps 709 mmHg 34%
    12:00 +34°C° 0 mm 4 mps 709 mmHg 27%
    13:00 +35°C° 0 mm 4 mps 708 mmHg 24%
    14:00 +35°C° 0 mm 4 mps 707 mmHg 22%
    15:00 +36°C° 0 mm 4 mps 707 mmHg 19%
    16:00 +35°C° 0 mm 4 mps 707 mmHg 21%
    17:00 +35°C° 0 mm 4 mps 707 mmHg 23%
    18:00 +34°C° 0 mm 4 mps 707 mmHg 24%
    19:00 +32°C° 0 mm 4 mps 707 mmHg 28%
    20:00 +30°C° 0 mm 4 mps 708 mmHg 32%
    21:00 +29°C° 0 mm 3 mps 708 mmHg 36%
    22:00 +28°C° 0 mm 3 mps 708 mmHg 38%
    23:00 +27°C° 0 mm 3 mps 708 mmHg 41%

    20 December, Wednesday

    Time Temperature Precipitation Wind Pressure Humidity
    00:00 +27°C° 0 mm 3 mps 708 mmHg 43%
    01:00 +26°C° 0 mm 3 mps 708 mmHg 46%
    02:00 +26°C° 0 mm 2 mps 708 mmHg 48%
    03:00 +25°C° 0 mm 2 mps 707 mmHg 51%
    04:00 +25°C° 0 mm 2 mps 708 mmHg 52%
    05:00 +24°C° 0 mm 2 mps 708 mmHg 54%
    06:00 +24°C° 0 mm 2 mps 708 mmHg 55%
    07:00 +25°C° 0 mm 3 mps 708 mmHg 52%
    08:00 +26°C° 0 mm 3 mps 709 mmHg 48%
    09:00 +27°C° 0 mm 3 mps 710 mmHg 45%
    10:00 +29°C° 0 mm 3 mps 709 mmHg 38%
    11:00 +31°C° 0 mm 3 mps 709 mmHg 31%
    12:00 +34°C° 0 mm 3 mps 709 mmHg 24%
    13:00 +35°C° 0 mm 3 mps 708 mmHg 22%
    14:00 +36°C° 0 mm 3 mps 708 mmHg 19%
    15:00 +36°C° 0 mm 3 mps 707 mmHg 17%
    16:00 +36°C° 0 mm 3 mps 707 mmHg 18%
    17:00 +35°C° 0 mm 4 mps 707 mmHg 20%
    18:00 +34°C° 0 mm 4 mps 707 mmHg 22%
    19:00 +33°C° 0 mm 4 mps 708 mmHg 26%
    20:00 +30°C° 0 mm 4 mps 708 mmHg 30%
    21:00 +29°C° 0 mm 3 mps 709 mmHg 34%
    22:00 +28°C° 0 mm 3 mps 709 mmHg 36%
    23:00 +27°C° 0 mm 3 mps 709 mmHg 39%

    21 December, Thursday

    Time Temperature Precipitation Wind Pressure Humidity
    00:00 +27°C° 0 mm 3 mps 709 mmHg 42%
    01:00 +26°C° 0 mm 3 mps 708 mmHg 44%
    02:00 +25°C° 0 mm 3 mps 708 mmHg 46%
    03:00 +25°C° 0 mm 2 mps 708 mmHg 47%
    04:00 +24°C° 0 mm 2 mps 708 mmHg 47%
    05:00 +24°C° 0 mm 2 mps 708 mmHg 46%
    06:00 +23°C° 0 mm 2 mps 708 mmHg 46%
    07:00 +25°C° 0 mm 2 mps 709 mmHg 40%
    08:00 +26°C° 0 mm 3 mps 709 mmHg 34%
    09:00 +27°C° 0 mm 3 mps 710 mmHg 28%
    10:00 +29°C° 0 mm 3 mps 710 mmHg 23%
    11:00 +31°C° 0 mm 3 mps 709 mmHg 17%
    12:00 +34°C° 0 mm 3 mps 709 mmHg 11%
    13:00 +35°C° 0 mm 3 mps 709 mmHg 10%
    14:00 +36°C° 0 mm 3 mps 708 mmHg 8%
    15:00 +37°C° 0 mm 3 mps 707 mmHg 7%
    16:00 +36°C° 0 mm 3 mps 707 mmHg 8%
    17:00 +35°C° 0 mm 3 mps 708 mmHg 10%
    18:00 +34°C° 0 mm 4 mps 708 mmHg 11%
    19:00 +31°C° 0 mm 3 mps 708 mmHg 14%
    20:00 +30°C° 0 mm 3 mps 708 mmHg 17%
    21:00 +28°C° 0 mm 3 mps 709 mmHg 19%
    22:00 +28°C° 0 mm 3 mps 708 mmHg 21%
    23:00 +27°C° 0 mm 3 mps 708 mmHg 23%

    22 December, Friday

    Time Temperature Precipitation Wind Pressure Humidity
    00:00 +26°C° 0 mm 2 mps 708 mmHg 24%
    01:00 +25°C° 0 mm 2 mps 708 mmHg 26%
    02:00 +25°C° 0 mm 2 mps 708 mmHg 27%
    03:00 +24°C° 0 mm 2 mps 708 mmHg 29%
    04:00 +23°C° 0 mm 2 mps 708 mmHg 30%
    05:00 +23°C° 0 mm 2 mps 708 mmHg 31%
    06:00 +23°C° 0 mm 2 mps 708 mmHg 32%
    07:00 +24°C° 0 mm 2 mps 708 mmHg 29%
    08:00 +25°C° 0 mm 2 mps 709 mmHg 27%
    09:00 +27°C° 0 mm 2 mps 709 mmHg 24%
    10:00 +29°C° 0 mm 2 mps 709 mmHg 20%
    11:00 +31°C° 0 mm 2 mps 709 mmHg 16%
    12:00 +34°C° 0 mm 2 mps 708 mmHg 12%
    13:00 +35°C° 0 mm 2 mps 708 mmHg 10%
    14:00 +36°C° 0 mm 2 mps 707 mmHg 9%
    15:00 +37°C° 0 mm 2 mps 706 mmHg 8%
    16:00 +36°C° 0 mm 2 mps 706 mmHg 9%
    17:00 +35°C° 0 mm 3 mps 706 mmHg 10%
    18:00 +34°C° 0 mm 3 mps 706 mmHg 11%
    19:00 +33°C° 0 mm 3 mps 707 mmHg 14%
    20:00 +31°C° 0 mm 3 mps 707 mmHg 17%
    21:00 +29°C° 0 mm 2 mps 707 mmHg 20%
    22:00 +28°C° 0 mm 2 mps 707 mmHg 23%
    23:00 +27°C° 0 mm 2 mps 707 mmHg 25%
    Show more